Time,TemperatureF,DewpointF,PressureIn,WindDirection,WindDirectionDegrees,WindSpeedMPH,WindSpeedGustMPH,Humidity,HourlyPrecipIn,Conditions,Clouds,dailyrainin,SoftwareType,DateUTC
2013-03-07 00:01:00,41.0,23.0,29.73,SSE,158,3.0,5.0,49,0.00,,,0.00,,2013-03-07 08:01:00,
2013-03-07 00:21:00,41.0,24.0,29.70,SSE,158,2.0,3.0,50,0.00,,,0.00,,2013-03-07 08:21:00,
2013-03-07 00:31:00,40.0,23.0,29.70,SSE,158,3.0,5.0,50,0.00,,,0.00,,2013-03-07 08:31:00,
2013-03-07 00:53:00,39.0,22.0,29.70,SE,135,0.0,3.0,51,0.00,,,0.00,,2013-03-07 08:53:00,
2013-03-07 01:01:00,40.0,24.0,29.70,SE,135,2.0,5.0,53,0.00,,,0.00,,2013-03-07 09:01:00,
2013-03-07 01:11:00,40.0,24.0,29.70,SE,135,2.0,5.0,53,0.00,,,0.00,,2013-03-07 09:11:00,
2013-03-07 01:21:00,40.0,24.0,29.70,SE,135,3.0,5.0,52,0.00,,,0.00,,2013-03-07 09:21:00,
2013-03-07 01:31:00,41.0,24.0,29.70,SE,135,3.0,5.0,51,0.00,,,0.00,,2013-03-07 09:31:00,
2013-03-07 01:41:00,41.0,24.0,29.70,SE,135,3.0,5.0,51,0.00,,,0.00,,2013-03-07 09:41:00,
2013-03-07 01:52:00,40.0,23.0,29.70,SSE,158,2.0,3.0,50,0.00,,,0.00,,2013-03-07 09:52:00,
2013-03-07 02:01:00,40.0,24.0,29.70,SSE,158,0.0,3.0,52,0.00,,,0.00,,2013-03-07 10:01:00,
2013-03-07 02:11:00,40.0,24.0,29.70,SSE,158,0.0,3.0,52,0.00,,,0.00,,2013-03-07 10:11:00,
2013-03-07 02:21:00,39.0,23.0,29.70,SSE,158,3.0,5.0,52,0.00,,,0.00,,2013-03-07 10:21:00,
2013-03-07 02:31:00,39.0,24.0,29.67,South,177,3.0,6.0,55,0.00,,,0.00,,2013-03-07 10:31:00,
2013-03-07 02:41:00,39.0,24.0,29.67,South,177,3.0,6.0,55,0.00,,,0.00,,2013-03-07 10:41:00,
2013-03-07 02:52:00,39.0,25.0,29.67,South,180,3.0,5.0,56,0.00,,,0.00,,2013-03-07 10:52:00,
2013-03-07 03:01:00,38.0,24.0,29.67,South,180,1.0,6.0,56,0.00,,,0.00,,2013-03-07 11:01:00,
2013-03-07 03:11:00,38.0,24.0,29.67,South,180,1.0,6.0,56,0.00,,,0.00,,2013-03-07 11:11:00,
2013-03-07 03:21:00,37.0,24.0,29.67,SSE,158,0.0,2.0,59,0.00,,,0.00,,2013-03-07 11:21:00,
2013-03-07 03:32:00,37.0,24.0,29.67,SE,135,0.0,0.0,60,0.00,,,0.00,,2013-03-07 11:32:00,
2013-03-07 03:41:00,37.0,24.0,29.67,SE,135,0.0,0.0,60,0.00,,,0.00,,2013-03-07 11:41:00,
2013-03-07 03:53:00,38.0,26.0,29.67,SE,135,1.0,5.0,61,0.00,,,0.00,,2013-03-07 11:53:00,
2013-03-07 04:01:00,39.0,25.0,29.67,East,100,2.0,7.0,58,0.00,,,0.00,,2013-03-07 12:01:00,
2013-03-07 04:11:00,39.0,25.0,29.67,East,100,2.0,7.0,58,0.00,,,0.00,,2013-03-07 12:11:00,
2013-03-07 04:21:00,40.0,25.0,29.67,SE,135,4.0,6.0,55,0.00,,,0.00,,2013-03-07 12:21:00,
2013-03-07 04:32:00,40.0,24.0,29.67,SSE,158,3.0,5.0,52,0.00,,,0.00,,2013-03-07 12:32:00,
2013-03-07 04:42:00,40.0,24.0,29.67,SSE,158,3.0,5.0,52,0.00,,,0.00,,2013-03-07 12:42:00,
2013-03-07 04:52:00,42.0,24.0,29.67,SE,139,3.0,6.0,48,0.00,,,0.00,,2013-03-07 12:52:00,
2013-03-07 05:01:00,40.0,22.0,29.67,NW,315,3.0,6.0,48,0.00,,,0.00,,2013-03-07 13:01:00,
2013-03-07 05:11:00,40.0,22.0,29.67,NW,315,3.0,6.0,48,0.00,,,0.00,,2013-03-07 13:11:00,
2013-03-07 05:21:00,39.0,21.0,29.67,SE,135,3.0,5.0,49,0.00,,,0.00,,2013-03-07 13:21:00,
2013-03-07 05:31:00,40.0,22.0,29.67,SE,135,2.0,3.0,49,0.00,,,0.00,,2013-03-07 13:31:00,
2013-03-07 05:41:00,40.0,22.0,29.67,SE,135,2.0,3.0,49,0.00,,,0.00,,2013-03-07 13:41:00,
2013-03-07 05:53:00,39.0,22.0,29.67,SE,135,1.0,5.0,51,0.00,,,0.00,,2013-03-07 13:53:00,
2013-03-07 06:01:00,39.0,22.0,29.67,SSE,158,4.0,6.0,51,0.00,,,0.00,,2013-03-07 14:01:00,
2013-03-07 06:11:00,39.0,22.0,29.67,SSE,158,4.0,6.0,51,0.00,,,0.00,,2013-03-07 14:11:00,
2013-03-07 06:21:00,38.0,22.0,29.67,SSE,158,0.0,3.0,52,0.00,,,0.00,,2013-03-07 14:21:00,
2013-03-07 06:31:00,38.0,22.0,29.67,SSE,158,3.0,5.0,53,0.00,,,0.00,,2013-03-07 14:31:00,
2013-03-07 06:41:00,38.0,22.0,29.67,SSE,158,3.0,5.0,53,0.00,,,0.00,,2013-03-07 14:41:00,
2013-03-07 06:53:00,41.0,25.0,29.67,South,180,1.0,5.0,52,0.00,,,0.00,,2013-03-07 14:53:00,
2013-03-07 07:01:00,42.0,24.0,29.67,SSE,158,0.0,2.0,49,0.00,,,0.00,,2013-03-07 15:01:00,
2013-03-07 07:11:00,42.0,24.0,29.67,SSE,158,0.0,2.0,49,0.00,,,0.00,,2013-03-07 15:11:00,
2013-03-07 07:21:00,45.0,26.0,29.67,SSE,158,0.0,0.0,47,0.00,,,0.00,,2013-03-07 15:21:00,
2013-03-07 07:31:00,49.0,27.0,29.70,South,180,0.0,0.0,43,0.00,,,0.00,,2013-03-07 15:31:00,
2013-03-07 07:41:00,49.0,27.0,29.70,South,180,0.0,0.0,43,0.00,,,0.00,,2013-03-07 15:41:00,
2013-03-07 07:52:00,47.0,27.0,29.70,South,180,2.0,3.0,45,0.00,,,0.00,,2013-03-07 15:52:00,
2013-03-07 08:01:00,45.0,25.0,29.70,SE,135,3.0,5.0,45,0.00,,,0.00,,2013-03-07 16:01:00,
2013-03-07 08:11:00,45.0,25.0,29.70,SE,135,3.0,5.0,45,0.00,,,0.00,,2013-03-07 16:11:00,
2013-03-07 08:21:00,46.0,26.0,29.70,ESE,112,0.0,3.0,45,0.00,,,0.00,,2013-03-07 16:21:00,
2013-03-07 08:31:00,47.0,27.0,29.70,SE,135,2.0,5.0,45,0.00,,,0.00,,2013-03-07 16:31:00,
2013-03-07 08:41:00,47.0,27.0,29.70,SE,135,2.0,5.0,45,0.00,,,0.00,,2013-03-07 16:41:00,
2013-03-07 08:52:00,47.0,27.0,29.70,SE,135,0.0,2.0,45,0.00,,,0.00,,2013-03-07 16:52:00,
2013-03-07 09:01:00,48.0,27.0,29.70,SE,135,0.0,0.0,44,0.00,,,0.00,,2013-03-07 17:01:00,
2013-03-07 09:11:00,48.0,27.0,29.70,SE,135,0.0,0.0,44,0.00,,,0.00,,2013-03-07 17:11:00,
2013-03-07 09:21:00,49.0,27.0,29.70,SE,135,3.0,5.0,43,0.00,,,0.00,,2013-03-07 17:21:00,
2013-03-07 09:31:00,49.0,27.0,29.70,SE,135,0.0,0.0,43,0.00,,,0.00,,2013-03-07 17:31:00,
2013-03-07 09:41:00,49.0,27.0,29.70,SE,135,0.0,0.0,43,0.00,,,0.00,,2013-03-07 17:41:00,
2013-03-07 09:53:00,49.0,27.0,29.70,SE,135,0.0,3.0,42,0.00,,,0.00,,2013-03-07 17:53:00,
2013-03-07 10:11:00,50.0,25.0,29.70,SE,135,0.0,3.0,38,0.00,,,0.00,,2013-03-07 18:11:00,
2013-03-07 10:21:00,50.0,23.0,29.70,SE,135,0.0,3.0,35,0.00,,,0.00,,2013-03-07 18:21:00,
2013-03-07 10:31:00,50.0,23.0,29.70,SE,135,1.0,5.0,35,0.00,,,0.00,,2013-03-07 18:31:00,
2013-03-07 10:52:00,50.0,23.0,29.70,East,90,4.0,6.0,35,0.00,,,0.00,,2013-03-07 18:52:00,
2013-03-07 11:01:00,50.0,23.0,29.70,ENE,75,3.0,6.0,35,0.00,,,0.00,,2013-03-07 19:01:00,
2013-03-07 11:11:00,50.0,24.0,29.70,East,90,4.0,5.0,36,0.00,,,0.00,,2013-03-07 19:11:00,
2013-03-07 11:21:00,50.0,24.0,29.70,East,90,4.0,5.0,36,0.00,,,0.00,,2013-03-07 19:21:00,
2013-03-07 11:31:00,50.0,23.0,29.70,ENE,75,5.0,6.0,34,0.00,,,0.00,,2013-03-07 19:31:00,
2013-03-07 11:52:00,50.0,23.0,29.70,East,90,5.0,8.0,34,0.00,,,0.00,,2013-03-07 19:52:00,
2013-03-07 12:01:00,51.0,24.0,29.70,East,90,5.0,8.0,34,0.00,,,0.00,,2013-03-07 20:01:00,
2013-03-07 12:21:00,52.0,24.0,29.70,ENE,76,3.0,8.0,33,0.00,,,0.00,,2013-03-07 20:21:00,
2013-03-07 12:31:00,52.0,24.0,29.70,East,80,6.0,9.0,33,0.00,,,0.00,,2013-03-07 20:31:00,
2013-03-07 12:53:00,54.0,25.0,29.70,NE,45,5.0,8.0,32,0.00,,,0.00,,2013-03-07 20:53:00,
2013-03-07 13:01:00,56.0,26.0,29.70,East,90,5.0,8.0,31,0.00,,,0.00,,2013-03-07 21:01:00,
2013-03-07 13:11:00,56.0,26.0,29.70,East,90,5.0,8.0,31,0.00,,,0.00,,2013-03-07 21:11:00,
2013-03-07 13:21:00,55.0,25.0,29.70,NE,45,5.0,7.0,31,0.00,,,0.00,,2013-03-07 21:21:00,
2013-03-07 13:31:00,56.0,23.0,29.67,North,0,5.0,8.0,28,0.00,,,0.00,,2013-03-07 21:31:00,
2013-03-07 13:52:00,55.0,23.0,29.67,NE,45,5.0,8.0,29,0.00,,,0.00,,2013-03-07 21:52:00,
2013-03-07 14:01:00,57.0,24.0,29.67,NE,45,2.0,8.0,28,0.00,,,0.00,,2013-03-07 22:01:00,
2013-03-07 14:21:00,56.0,23.0,29.67,North,11,5.0,9.0,28,0.00,,,0.00,,2013-03-07 22:21:00,
2013-03-07 14:31:00,56.0,22.0,29.67,NE,34,3.0,6.0,26,0.00,,,0.00,,2013-03-07 22:31:00,
2013-03-07 14:53:00,56.0,22.0,29.70,NNE,18,4.0,6.0,26,0.00,,,0.00,,2013-03-07 22:53:00,
2013-03-07 15:01:00,55.0,21.0,29.67,North,5,4.0,6.0,26,0.00,,,0.00,,2013-03-07 23:01:00,
2013-03-07 15:21:00,55.0,21.0,29.67,NNE,33,5.0,8.0,26,0.00,,,0.00,,2013-03-07 23:21:00,
2013-03-07 15:31:00,54.0,22.0,29.67,NE,39,6.0,10.0,29,0.00,,,0.00,,2013-03-07 23:31:00,
2013-03-07 15:53:00,54.0,24.0,29.67,North,0,6.0,8.0,31,0.00,,,0.00,,2013-03-07 23:53:00,
2013-03-07 16:01:00,54.0,25.0,29.67,North,353,6.0,9.0,32,0.00,,,0.00,,2013-03-08 00:01:00,
2013-03-07 16:31:00,53.0,25.0,29.67,NNW,338,2.0,6.0,33,0.00,,,0.00,,2013-03-08 00:31:00,
2013-03-07 16:53:00,53.0,24.0,29.67,NNW,341,3.0,6.0,32,0.00,,,0.00,,2013-03-08 00:53:00,
2013-03-07 17:01:00,51.0,23.0,29.65,NW,314,7.0,8.0,33,0.00,,,0.00,,2013-03-08 01:01:00,
2013-03-07 17:21:00,51.0,23.0,29.65,NW,315,4.0,6.0,33,0.00,,,0.00,,2013-03-08 01:21:00,
2013-03-07 17:31:00,51.0,23.0,29.67,West,270,5.0,6.0,33,0.00,,,0.00,,2013-03-08 01:31:00,
2013-03-07 17:52:00,51.0,23.0,29.65,NW,320,6.0,9.0,33,0.00,,,0.00,,2013-03-08 01:52:00,
2013-03-07 18:01:00,50.0,23.0,29.65,NW,315,3.0,6.0,34,0.00,,,0.00,,2013-03-08 02:01:00,
2013-03-07 18:11:00,51.0,23.0,29.65,North,0,3.0,7.0,33,0.00,,,0.00,,2013-03-08 02:11:00,
2013-03-07 18:21:00,51.0,23.0,29.65,North,0,3.0,7.0,33,0.00,,,0.00,,2013-03-08 02:21:00,
2013-03-07 18:31:00,50.0,21.0,29.65,NNE,29,3.0,6.0,32,0.00,,,0.00,,2013-03-08 02:31:00,
2013-03-07 18:52:00,48.0,27.0,29.65,NW,315,9.0,14.0,43,0.00,,,0.00,,2013-03-08 02:52:00,
2013-03-07 19:01:00,47.0,26.0,29.65,NW,315,6.0,8.0,44,0.00,,,0.00,,2013-03-08 03:01:00,
2013-03-07 19:11:00,47.0,26.0,29.65,NW,315,6.0,8.0,44,0.00,,,0.00,,2013-03-08 03:11:00,
2013-03-07 19:21:00,47.0,27.0,29.67,West,278,6.0,8.0,45,0.00,,,0.00,,2013-03-08 03:21:00,
2013-03-07 19:31:00,46.0,26.0,29.65,NNW,338,5.0,8.0,45,0.00,,,0.00,,2013-03-08 03:31:00,
2013-03-07 19:41:00,46.0,26.0,29.65,NNW,338,5.0,8.0,45,0.00,,,0.00,,2013-03-08 03:41:00,
2013-03-07 19:52:00,46.0,25.0,29.67,West,270,6.0,7.0,44,0.00,,,0.00,,2013-03-08 03:52:00,
2013-03-07 20:01:00,45.0,24.0,29.65,West,275,6.0,9.0,44,0.00,,,0.00,,2013-03-08 04:01:00,
2013-03-07 20:11:00,44.0,24.0,29.65,West,270,3.0,6.0,45,0.00,,,0.00,,2013-03-08 04:11:00,
2013-03-07 20:21:00,44.0,24.0,29.65,West,270,3.0,6.0,45,0.00,,,0.00,,2013-03-08 04:21:00,
2013-03-07 20:31:00,43.0,24.0,29.65,NE,45,0.0,5.0,46,0.00,,,0.00,,2013-03-08 04:31:00,
2013-03-07 20:42:00,43.0,24.0,29.65,NE,45,0.0,5.0,46,0.00,,,0.00,,2013-03-08 04:42:00,
2013-03-07 20:52:00,42.0,24.0,29.67,East,90,0.0,5.0,49,0.00,,,0.00,,2013-03-08 04:52:00,
2013-03-07 21:01:00,41.0,24.0,29.65,East,90,0.0,0.0,51,0.00,,,0.00,,2013-03-08 05:01:00,
2013-03-07 21:11:00,41.0,24.0,29.65,East,90,0.0,0.0,51,0.00,,,0.00,,2013-03-08 05:11:00,
2013-03-07 21:22:00,39.0,24.0,29.65,East,90,0.0,0.0,54,0.00,,,0.00,,2013-03-08 05:22:00,
2013-03-07 21:31:00,38.0,24.0,29.67,East,90,0.0,2.0,56,0.00,,,0.00,,2013-03-08 05:31:00,
2013-03-07 21:42:00,38.0,24.0,29.67,East,90,0.0,2.0,56,0.00,,,0.00,,2013-03-08 05:42:00,
2013-03-07 21:52:00,38.0,25.0,29.65,East,90,0.0,2.0,59,0.00,,,0.00,,2013-03-08 05:52:00,
2013-03-07 22:01:00,39.0,26.0,29.65,East,90,1.0,5.0,60,0.00,,,0.00,,2013-03-08 06:01:00,
2013-03-07 22:11:00,39.0,26.0,29.65,East,90,1.0,5.0,60,0.00,,,0.00,,2013-03-08 06:11:00,
2013-03-07 22:21:00,40.0,26.0,29.65,SE,135,0.0,3.0,58,0.00,,,0.00,,2013-03-08 06:21:00,
2013-03-07 22:31:00,40.0,26.0,29.65,ESE,112,0.0,2.0,56,0.00,,,0.00,,2013-03-08 06:31:00,
2013-03-07 22:41:00,40.0,26.0,29.65,ESE,112,0.0,2.0,56,0.00,,,0.00,,2013-03-08 06:41:00,
2013-03-07 22:52:00,39.0,25.0,29.62,ESE,112,0.0,0.0,57,0.00,,,0.00,,2013-03-08 06:52:00,
2013-03-07 23:01:00,39.0,25.0,29.65,SE,135,0.0,5.0,58,0.00,,,0.00,,2013-03-08 07:01:00,
2013-03-07 23:11:00,39.0,25.0,29.65,SE,135,0.0,5.0,58,0.00,,,0.00,,2013-03-08 07:11:00,
2013-03-07 23:21:00,39.0,25.0,29.62,SE,135,0.0,0.0,57,0.00,,,0.00,,2013-03-08 07:21:00,
2013-03-07 23:31:00,39.0,25.0,29.62,SE,135,0.0,2.0,56,0.00,,,0.00,,2013-03-08 07:31:00,
2013-03-07 23:41:00,39.0,25.0,29.62,SE,135,0.0,2.0,56,0.00,,,0.00,,2013-03-08 07:41:00,
2013-03-07 23:52:00,40.0,26.0,29.62,SE,135,2.0,5.0,57,0.00,,,0.00,,2013-03-08 07:52:00,